| time (UTC) | temp C | wind direction | speed KPH | gust KPH | rain 1hr cm | rain 24hr cm | rain mn cm | humidity % | barometer mb |
| 20260504081523 | 5 | 0 | 0.0 | 0.0 | 0.00 | 0.00 | 0.00 | 59 | 757.5 |
| 20260504080523 | 5 | 0 | 0.0 | 0.0 | 0.00 | 0.00 | 0.00 | 59 | 757.5 |
| 20260504070137 | 6 | 0 | 0.0 | 0.0 | 0.00 | 0.00 | 0.00 | 56 | 757.5 |
| 20260504045833 | 8 | 0 | 0.0 | 3.2 | 0.00 | 0.00 | 0.00 | 41 | 757.5 |
| 20260504044833 | 8 | 0 | 0.0 | 3.2 | 0.00 | 0.00 | 0.00 | 40 | 757.5 |
| 20260504043833 | 9 | 0 | 0.0 | 1.6 | 0.00 | 0.00 | 0.00 | 40 | 757.5 |
| 20260504042833 | 9 | 0 | 0.0 | 1.6 | 0.00 | 0.00 | 0.00 | 40 | 757.5 |
| 20260504041833 | 10 | 0 | 0.0 | 1.6 | 0.00 | 0.00 | 0.00 | 39 | 757.5 |
| 20260504040833 | 10 | 0 | 0.0 | 3.2 | 0.00 | 0.00 | 0.00 | 39 | 757.5 |
| 20260504035213 | 10 | 217 | 3.2 | 4.8 | 0.00 | 0.00 | 0.00 | 38 | 757.5 |
| 20260504034212 | 10 | 218 | 3.2 | 6.4 | 0.00 | 0.00 | 0.00 | 39 | 757.5 |
| 20260504033212 | 10 | 0 | 0.0 | 3.2 | 0.00 | 0.00 | 0.00 | 40 | 757.5 |
| 20260504031559 | 10 | 217 | 1.6 | 4.8 | 0.00 | 0.00 | 0.00 | 38 | 757.5 |
| 20260504030600 | 10 | 0 | 0.0 | 1.6 | 0.00 | 0.00 | 0.00 | 38 | 757.5 |
| 20260504025559 | 10 | 218 | 1.6 | 4.8 | 0.00 | 0.00 | 0.00 | 37 | 757.5 |
| 20260504023944 | 10 | 0 | 0.0 | 0.0 | 0.00 | 0.00 | 0.00 | 38 | 757.5 |
| 20260504022944 | 10 | 0 | 0.0 | 0.0 | 0.00 | 0.00 | 0.00 | 38 | 757.5 |
| 20260504021945 | 10 | 0 | 0.0 | 0.0 | 0.00 | 0.00 | 0.00 | 37 | 757.5 |
| 20260504020325 | 11 | 0 | 0.0 | 0.0 | 0.00 | 0.00 | 0.00 | 36 | 757.5 |
| 20260504015325 | 11 | 0 | 0.0 | 0.0 | 0.00 | 0.00 | 0.00 | 35 | 757.5 |
| 20260504014325 | 12 | 0 | 0.0 | 0.0 | 0.00 | 0.00 | 0.00 | 33 | 757.5 |
| 20260504012727 | 12 | 0 | 0.0 | 0.0 | 0.00 | 0.00 | 0.00 | 31 | 757.5 |
| 20260504011727 | 12 | 0 | 0.0 | 0.0 | 0.00 | 0.00 | 0.00 | 33 | 757.5 |
| 20260504010726 | 12 | 218 | 1.6 | 4.8 | 0.00 | 0.00 | 0.00 | 31 | 757.5 |
| 20260504005112 | 12 | 218 | 3.2 | 4.8 | 0.00 | 0.00 | 0.00 | 29 | 757.5 |
| 20260504004112 | 13 | 217 | 1.6 | 4.8 | 0.00 | 0.00 | 0.00 | 28 | 757.5 |
| 20260504003112 | 13 | 217 | 1.6 | 4.8 | 0.00 | 0.00 | 0.00 | 28 | 757.5 |
| 20260504001447 | 13 | 217 | 1.6 | 3.2 | 0.00 | 0.00 | 0.00 | 28 | 757.5 |
| 20260504000446 | 13 | 217 | 3.2 | 4.8 | 0.00 | 0.00 | 0.00 | 26 | 757.5 |
| 20260503235447 | 14 | 218 | 1.6 | 4.8 | 0.00 | 0.00 | 0.00 | 26 | 757.5 |
| 20260503233834 | 15 | 217 | 1.6 | 4.8 | 0.00 | 0.00 | 0.00 | 25 | 757.5 |
| 20260503232834 | 15 | 238 | 3.2 | 6.4 | 0.00 | 0.00 | 0.00 | 24 | 757.5 |
| 20260503231834 | 15 | 232 | 3.2 | 8.0 | 0.00 | 0.00 | 0.00 | 23 | 757.5 |
| 20260503230223 | 15 | 218 | 1.6 | 6.4 | 0.00 | 0.00 | 0.00 | 23 | 757.5 |
| 20260503225223 | 15 | 212 | 3.2 | 8.0 | 0.00 | 0.00 | 0.00 | 23 | 757.5 |
| 20260503224223 | 15 | 210 | 1.6 | 6.4 | 0.00 | 0.00 | 0.00 | 23 | 757.5 |
| 20260503222610 | 15 | 290 | 1.6 | 4.8 | 0.00 | 0.00 | 0.00 | 21 | 757.5 |
| 20260503221610 | 15 | 233 | 4.8 | 8.0 | 0.00 | 0.00 | 0.00 | 21 | 757.5 |
| 20260503220610 | 15 | 278 | 3.2 | 9.7 | 0.00 | 0.00 | 0.00 | 22 | 757.5 |
| 20260503214947 | 15 | 300 | 4.8 | 12.9 | 0.00 | 0.00 | 0.00 | 21 | 757.5 |
| 20260503213947 | 15 | 227 | 3.2 | 8.0 | 0.00 | 0.00 | 0.00 | 22 | 757.5 |
| 20260503212947 | 15 | 317 | 3.2 | 22.5 | 0.00 | 0.00 | 0.00 | 23 | 757.5 |
| 20260503211325 | 15 | 214 | 4.8 | 19.3 | 0.00 | 0.00 | 0.00 | 19 | 757.5 |
| 20260503210324 | 15 | 239 | 3.2 | 11.3 | 0.00 | 0.00 | 0.00 | 19 | 757.5 |
| 20260503205324 | 15 | 267 | 4.8 | 14.5 | 0.00 | 0.00 | 0.00 | 20 | 757.5 |
| 20260503203705 | 15 | 223 | 3.2 | 11.3 | 0.00 | 0.00 | 0.00 | 19 | 757.5 |
| 20260503202706 | 15 | 266 | 3.2 | 12.9 | 0.00 | 0.00 | 0.00 | 20 | 757.5 |
| 20260503201706 | 15 | 238 | 4.8 | 14.5 | 0.00 | 0.00 | 0.00 | 20 | 757.5 |
| 20260503200038 | 15 | 262 | 6.4 | 12.9 | 0.00 | 0.00 | 0.00 | 21 | 757.5 |
| 20260503195038 | 15 | 284 | 6.4 | 17.7 | 0.00 | 0.00 | 0.00 | 21 | 757.5 |
| 20260503194038 | 14 | 297 | 3.2 | 17.7 | 0.00 | 0.00 | 0.00 | 22 | 757.5 |
| 20260503192422 | 13 | 300 | 11.3 | 17.7 | 0.00 | 0.00 | 0.00 | 22 | 757.5 |
| 20260503191422 | 13 | 246 | 6.4 | 25.7 | 0.00 | 0.00 | 0.00 | 24 | 757.5 |
| 20260503190421 | 14 | 295 | 6.4 | 14.5 | 0.00 | 0.00 | 0.00 | 24 | 757.5 |
| 20260503184732 | 14 | 286 | 3.2 | 20.9 | 0.00 | 0.00 | 0.00 | 24 | 757.5 |
| 20260503183732 | 14 | 257 | 6.4 | 29.0 | 0.00 | 0.00 | 0.00 | 22 | 757.5 |
| 20260503182733 | 13 | 298 | 3.2 | 22.5 | 0.00 | 0.00 | 0.00 | 23 | 757.5 |
| 20260503181026 | 13 | 259 | 8.0 | 33.8 | 0.00 | 0.00 | 0.00 | 22 | 757.5 |
| 20260503180025 | 13 | 334 | 9.7 | 16.1 | 0.00 | 0.00 | 0.00 | 25 | 757.5 |
| 20260503175025 | 13 | 268 | 6.4 | 30.6 | 0.00 | 0.00 | 0.00 | 23 | 757.5 |
| 20260503173309 | 13 | 253 | 3.2 | 14.5 | 0.00 | 0.00 | 0.00 | 23 | 757.5 |
| 20260503172309 | 13 | 306 | 1.6 | 16.1 | 0.00 | 0.00 | 0.00 | 24 | 757.5 |
| 20260503171309 | 13 | 304 | 8.0 | 17.7 | 0.00 | 0.00 | 0.00 | 26 | 757.5 |
| 20260503150432 | 9 | 303 | 8.0 | 17.7 | 0.00 | 0.00 | 0.00 | 34 | 757.5 |